Weather Roundup
Issued by NWS Springfield, MO

Home | Current Version | Previous Version | Text Only | Print | Product List | Glossary On
Versions: 1 2 3 4 5 6 7 8 9 10 11 12 13 14 15 16 17 18 19 20 21 22 23 24 25 26 27 28 29 30 31 32 33 34 35 36 37 38 39 40 41 42 43 44 45 46 47 48 49 50
000
NZUS99 KSGF 210259
HRRSGF

HOURLY WEATHER
NATIONAL WEATHER SERVICE SPRINGFIELD MO
1000 PM CDT SUN APR 20 2014

......SGF CWA......

CITY           SKY/WX    TMP DP  RH WIND       PRES   REMARKS
SPRINGFIELD    MOCLDY    64  51  62 SW3       30.07R
JOPLIN         MOCLDY    66  52  60 SE7       30.05S
WEST PLAINS    CLOUDY    67  46  47 SE5       30.09R
ROLLA          PTCLDY    65  48  54 S7        30.04S
OSAGE BEACH    MOCLDY    66  48  52 CALM      30.06R

......SURROUNDING SGF CWA......

CITY           SKY/WX    TMP DP  RH WIND       PRES   REMARKS
CHANUTE        CLOUDY    65  54  67 SE8       30.02R
PARSONS        CLOUDY    68  54  60 S9        30.03R
COFFEYVILLE    CLOUDY    68  55  63 S9        30.02S
EMPORIA        CLOUDY    63  54  72 SE6       30.00R
SILOAM SPRINGS CLOUDY    66  48  52 SE6       30.08R
HARRISON AR    PTCLDY    67  49  52 S6        30.09S
NEAR YELLVILLE MOCLDY    70  46  43 SW5       30.07S

......KANSAS AND MISSOURI......

CITY           SKY/WX    TMP DP  RH WIND       PRES   REMARKS
KANSAS CTY INT CLOUDY    66  54  65 S8        30.02R
DOWNTOWN KC    CLOUDY    69  54  58 S5        30.01R
COLUMBIA       CLOUDY    70  49  47 S3        30.03S
SEDALIA        CLOUDY    69  54  58 CALM      30.04R
ST JOSEPH      CLOUDY    64  55  72 S7        30.01R
ST LOUIS       MOCLDY    74  43  32 S13       30.05S
SPIRIT OF STL  CLOUDY    72  43  35 SE6       30.03S
KIRKSVILLE     CLOUDY    67  48  50 SW6       30.02R
WICHITA        MOCLDY    65  54  67 S13       29.98S
TOPEKA         LGT RAIN  66  56  70 CALM      30.01R
OLATHE         CLOUDY    65  53  65 S6        30.02R

......TENNESSEE......

CITY           SKY/WX    TMP DP  RH WIND       PRES   REMARKS
MEMPHIS        MOCLDY    65  50  58 S3        30.11R
NASHVILLE      PTCLDY    64  44  48 CALM      30.12S

......ARKANSAS.......

CITY           SKY/WX    TMP DP  RH WIND       PRES   REMARKS
FAYETTEVILLE   MOCLDY    59  54  83 CALM      30.08S
FT SMITH       LGT RAIN  72  56  57 SW12      30.07R
LITTLE ROCK    MOCLDY    69  52  54 S8        30.08R

......OKLAHOMA.......

CITY           SKY/WX    TMP DP  RH WIND       PRES   REMARKS
TULSA          CLOUDY    66  61  84 S9        30.02R
PONCA CITY     MOCLDY    65  55  70 SE16      29.99F
MCALESTER      CLOUDY    62  60  93 SE3       30.07R FOG
OKLAHOMA CITY  MOCLDY    60  56  86 S8        30.03R

......IOWA............

CITY           SKY/WX    TMP DP  RH WIND       PRES   REMARKS
DES MOINES     MOCLDY    71  53  52 S8        29.96R
QUAD CITIES    CLOUDY    69  45  41 S8        29.98S

......ILLINOIS........

CITY           SKY/WX    TMP DP  RH WIND       PRES   REMARKS
QUINCY         PTCLDY    65  46  50 SE6       30.02R
CHICAGO        PTCLDY    64  40  41 S12       30.03F




USA.gov is the U.S. government's official web portal to all federal, state and local government web resources and services.